Preview of NWS' New Version of Forecast
This preview is not operational and should not be used for support decisions.

Regional Weather Roundup (RWR)

Issued by National Weather Service (NWS)

                            
000
ASUS46 KSEW 172210
RWRWA 

WASHINGTON REGIONAL WEATHER ROUNDUP
NATIONAL WEATHER SERVICE SEATTLE WA
300 PM PDT WED APR 17 2019

NOTE:"FAIR" INDICATES FEW OR NO CLOUDS BELOW 12,000 FEET WITH NO 
SIGNIFICANT WEATHER AND/OR OBSTRUCTIONS TO VISIBILITY.

WAZ507-509-555>559-172300-
SEATTLE, TACOMA, EVERETT, AND VICINITY
  
CITY           SKY/WX    TMP DP  RH WIND       PRES   REMARKS
EVERETT        CLOUDY    56  45  66 S13       30.31S                  
BOEING FIELD   PTSUNNY   60  46  59 S10G23    30.31S                  
RENTON         MOSUNNY   62  46  55 S9        30.30F                  
SEATAC AIRPORT PTSUNNY   60  48  64 S15       30.31S                  
JBLM-MCCHORD   PTSUNNY   61  52  72 S12G18    30.30F                  
PUYALLUP       PTSUNNY   61  48  63 VRB7      30.32S                  
BREMERTON      SUNNY     59  49  69 S17G23    30.30S                  
JBLM-FT LEWIS  MOSUNNY   62  51  69 S12G18    30.30F                  
TACOMA NARROWS PTSUNNY   60  48  64 S9        30.32F                  
$$
 
WAZ001-503-506-510-514-515-172300-
NORTH INTERIOR
  
CITY           SKY/WX    TMP DP  RH WIND       PRES   REMARKS
BELLINGHAM     MOSUNNY   58  45  62 S13G18    30.29R                  
FRIDAY HARBOR  PTSUNNY   62  47  57 SE8       30.31R                  
EASTSOUND      MOSUNNY   59  46  63 S12       30.29R                  
PORT ANGELES   PTSUNNY   55  46  71 NE6       30.30R                  
EDIZ HOOK      MOCLDY    53  49  86 NW6       30.30R                  
PORT TOWNSEND  FAIR      59  50  72 SE16G22   30.27S                  
NAS WHIDBEY    PTSUNNY   63  46  54 SE15G25   30.33S                  
ARLINGTON      CLOUDY    59  48  67 SE13      30.31S                  
BURLINGTON     MOSUNNY   61  46  59 S9G18     30.30S                  
$$
 
WAZ020-022-039-040-504-511-512-172300-
SOUTHWEST INTERIOR
  
CITY           SKY/WX    TMP DP  RH WIND       PRES   REMARKS
SHELTON        PTSUNNY   61  48  62 SW12      30.29S                  
OLYMPIA        PTSUNNY   60  46  59 S10G17    30.31F                  
CHEHALIS       PTSUNNY   63  50  63 S9        30.33S                  
KELSO          PTSUNNY   61  49  64 S10       30.35S                  
VANCOUVER      PTSUNNY   59  46  62 SE9       30.35S                  
SCAPPOOSE, OR  PTSUNNY   61  48  62 CALM      30.35S                  
PORTLAND, OR   CLOUDY    61  48  62 E8        30.35F                  
$$
 
WAZ021-516-517-172300-
WASHINGTON COAST
  
CITY           SKY/WX    TMP DP  RH WIND       PRES   REMARKS
FORKS          CLOUDY    55  51  86 S13G21    30.29R                  
HOQUIAM        CLOUDY    53  52  96 S12       30.33R                  
ASTORIA, OR    CLOUDY    58  48  69 S13G23    30.32F                  
$$
 
WAZ019-023-024-040-567>569-172300-
CASCADE MOUNTAINS AND COLUMBIA GORGE
  
CITY           SKY/WX    TMP DP  RH WIND       PRES   REMARKS
STAMPEDE PASS  NOT AVBL                                               
TROUTDALE, OR  PTSUNNY   61  47  59 VRB5      30.35F                  
HOOD RIVER, OR CLEAR     59  45  58 MISG      30.31S                  
THE DALLES, OR MOSUNNY   63  42  46 NW29      30.25F                  
$$

WAZ026-027-041>044-520-521-172300-
EAST SLOPES
  
CITY           SKY/WX    TMP DP  RH WIND       PRES   REMARKS
OMAK           SUNNY     69  32  25 S18       30.10S                  
WENATCHEE      SUNNY     66  29  24 W16G22    30.16S                  
ELLENSBURG     SUNNY     63  36  36 NW26G32   30.22S                  
YAKIMA         MOSUNNY   65  32  29 W3        30.20F                  
SUNNYSIDE ARPT PTCLDY    66  39  37 W3        30.22S                  
YAKIMA TC      MOCLDY    63  33  32 NW14      30.18F                  
$$

WAZ028-034-035-172300-
COLUMBIA BASIN
  
CITY           SKY/WX    TMP DP  RH WIND       PRES   REMARKS
EPHRATA        SUNNY     67  31  26 W10G17    30.17S                  
MOSES LAKE     SUNNY     69  35  28 SW12G20   30.18S                  
PASCO          SUNNY     72  38  29 W12G17    30.22F                  
RICHLAND ARPT  CLEAR     70  39  32 W9        30.23                   
HERMISTON, OR  SUNNY     69  42  37 SW14G24   30.24S                  
$$

WAZ036>038-172300-
NORTHEAST WASHINGTON
  
CITY           SKY/WX    TMP DP  RH WIND       PRES   REMARKS
SPOKANE GEIGER MOSUNNY   61  34  36 SW18G28   30.17S                  
SPOKANE FELTS  MOSUNNY   63  34  33 SW17G25   30.17S                  
FAIRCHILD AFB  PTSUNNY   58  36  43 SW16      30.17R                  
COEURDALENE,ID PTSUNNY   57  35  43 SW18G29   30.17R                  
DEER PARK      SUNNY     62  32  32 SW15G24   30.14S                  
$$

WAZ029>033-172300-
SOUTHEAST WASHINGTON
  
CITY           SKY/WX    TMP DP  RH WIND       PRES   REMARKS
PULLMAN        CLOUDY    56  40  55 SW18      30.25S                  
LEWISTON, ID   CLOUDY    61  39  44 W9G20     30.23R                  
WALLA WALLA    PTSUNNY   65  42  43 W20       30.25R                  
PENDLETON, OR  MOSUNNY   64  42  44 W13       30.26S                  
$$